Home   Weather   Tromsø   Past weeks

Flag for Norway Past Weather in Tromsø, Norway — Yesterday and Last 2 Weeks

Now
51 °F

Overcast.


Feels Like: 51 °F
Forecast: 45 / 49 °F
Wind: 2 mph from North

Location: Tromso / Langnes

Current Time: Sep 28, 2016 at 5:30:05 PM

Latest Report: Sep 28, 2016 at 5:00 PM


Visibility: 31 mi

Pressure: 29.26 "Hg

Humidity: 83%

Dew Point: 46 °F

Location of TromsøLocation

Past Weather in Tromsø — Graph

°F

Tromsø Temperature Yesterday

Maximum temperature yesterday: 54 °F (at 12:00 AM)
Minimum temperature yesterday: 45 °F (at 7:00 AM)
Average temperature yesterday: 48 °F

High & Low Weather Summary for the Past Weeks

 TemperatureHumidityPressure
High60 °F (Sep 19, 2:00 PM)100% (Sep 21, 7:00 AM)30.28 "Hg (Sep 21, 7:00 AM)
Low37 °F (Sep 16, 6:00 AM)51% (Sep 17, 3:00 PM)29.29 "Hg (Sep 28, 4:00 PM)
Average50 °F84%30.05 "Hg
* Reported Sep 13 5:00 PM — Sep 28 4:00 PM, Tromsø, Weather by CustomWeather, © 2016

Note: Actual official high and low records may vary slightly from our data, if they occured in-between our weather recording intervals... More about our weather records

Advertising

Tromsø Weather History for the Previous 24 Hours

Scroll right to see more
 ConditionsComfort  
Time TempWeatherWind HumidityBarometerVisibility
4:00 PM
Wed, Sep 28
51 °FRain showers. Overcast.3 mph82%29.29 "Hg25 mi
3:00 PM52 °FOvercast.2 mph83%29.32 "Hg28 mi
2:00 PM52 °FOvercast.3 mph79%29.35 "Hg16 mi
1:00 PM52 °FOvercast.3 mph77%29.35 "Hg25 mi
12:00 PM51 °FOvercast.2 mph75%29.38 "Hg31 mi
11:00 AM50 °FOvercast.2 mph74%29.41 "Hg28 mi
10:00 AM48 °FScattered clouds.1 mph87%29.41 "Hg28 mi
9:00 AM45 °FPassing clouds.2 mph92%29.41 "Hg25 mi
8:00 AM43 °FPartly sunny.1 mph94%29.44 "Hg31 mi
7:00 AM42 °FOvercast.2 mph96%29.47 "Hg19 mi
6:00 AM41 °FClear.1 mph95%29.50 "Hg22 mi
5:00 AM43 °FClear.1 mph97%29.56 "Hg12 mi
3:00 AM43 °FClear.3 mph95%29.62 "Hg25 mi
2:00 AM44 °FClear.1 mph97%29.67 "Hg4 mi
1:00 AM46 °FClear.2 mph96%29.68 "Hg16 mi
12:00 AM46 °FPassing clouds.1 mph96%29.72 "Hg11 mi
11:00 PM
Tue, Sep 27
46 °FPassing clouds.2 mph96%29.75 "Hg9 mi
10:00 PM48 °FRain. Overcast.2 mph97%29.77 "Hg3 mi
9:00 PM47 °FOvercast.2 mph96%29.79 "Hg10 mi
8:00 PM48 °FOvercast.2 mph97%29.83 "Hg4 mi
7:00 PM48 °FOvercast.1 mph96%29.85 "Hg7 mi
6:00 PM50 °FPassing clouds.1 mph91%29.87 "Hg28 mi
5:00 PM50 °FScattered clouds.2 mph91%29.90 "Hg28 mi
Weather by CustomWeather, © 2016

See weather overviewHow to use our weather pages